GW3532 Weather Reports


time (UTC)temp
C
wind
direction
speed
KPH
gust
KPH
rain 1hr
cm
rain 24hr
cm
rain mn
cm
humidity
%
barometer
mb
20260903150004 31 73 3.2 6.4 0.00 0.00 0.00 68 1020.5
20260903144508 31 44 3.2 8.0 0.00 0.00 0.00 70 1020.4
20260903143016 30 19 0.0 4.8 0.00 0.00 0.00 71 1020.3
20260903141520 30 185 0.0 1.6 0.00 0.00 0.00 75 1020.4
20260903140039 29 38 3.2 4.8 0.00 0.00 0.00 74 1020.5
20260903134507 29 72 0.0 3.2 0.00 0.00 0.00 76 1020.5
20260903133010 28 88 0.0 1.6 0.00 0.00 0.00 79 1020.4
20260903131515 27 64 1.6 3.2 0.00 0.00 0.00 80 1020.5
20260903130022 27 79 0.0 0.0 0.00 0.00 0.00 83 1020.5
20260903124531 26 79 0.0 0.0 0.00 0.00 0.00 86 1020.5
20260903123014 24 79 0.0 0.0 0.00 0.00 0.00 92 1020.6
20260903121512 22 79 1.6 3.2 0.00 0.00 0.00 95 1020.6
20260903120017 21 158 0.0 0.0 0.00 0.00 0.00 98 1020.5
20260903114524 20 158 0.0 0.0 0.00 0.00 0.00 98 1020.4
20260903113028 20 158 0.0 0.0 0.00 0.00 0.00 98 1020.1
20260903111535 20 158 0.0 0.0 0.00 0.00 0.00 97 1020.0
20260903110015 20 158 0.0 0.0 0.00 0.00 0.00 97 1019.8
20260903104520 20 158 0.0 0.0 0.00 0.00 0.00 98 1019.6
20260903103028 21 158 0.0 0.0 0.00 0.00 0.00 97 1019.5
20260903101529 21 158 0.0 0.0 0.00 0.00 0.00 97 1019.4
20260903100037 21 158 0.0 0.0 0.00 0.00 0.00 98 1019.4
20260903094521 21 178 0.0 0.0 0.00 0.00 0.00 98 1019.3
20260903093023 20 178 0.0 0.0 0.00 0.00 0.00 97 1019.2
20260903091527 20 178 0.0 0.0 0.00 0.00 0.00 97 1019.3
20260903090037 20 178 0.0 0.0 0.00 0.00 0.00 97 1019.3
20260903084535 21 178 0.0 0.0 0.00 0.00 0.00 97 1019.3
20260903083020 21 178 0.0 0.0 0.00 0.00 0.00 97 1019.3
20260903081525 21 178 0.0 0.0 0.00 0.00 0.00 97 1019.3
20260903080029 21 178 0.0 0.0 0.00 0.00 0.00 97 1019.3
20260903074533 21 178 0.0 0.0 0.00 0.00 0.00 97 1019.3
20260903073034 21 178 0.0 0.0 0.00 0.00 0.00 96 1019.1
20260903071505 21 178 0.0 0.0 0.00 0.00 0.00 96 1019.1
20260903070006 21 178 0.0 0.0 0.00 0.00 0.00 96 1019.1
20260903064507 21 178 0.0 0.0 0.00 0.00 0.00 96 1019.1
20260903063011 21 178 0.0 0.0 0.00 0.00 0.00 96 1019.2
20260903061512 21 178 0.0 0.0 0.00 0.00 0.00 95 1019.2
20260903060013 21 178 0.0 0.0 0.00 0.00 0.00 95 1019.3
20260903054504 21 178 0.0 0.0 0.00 0.00 0.00 94 1019.3
20260903053007 22 178 0.0 0.0 0.00 0.00 0.00 94 1019.4
20260903051511 22 178 0.0 0.0 0.00 0.00 0.00 94 1019.5
20260903050019 22 178 0.0 0.0 0.00 0.00 0.00 94 1019.5
20260903044503 22 178 0.0 0.0 0.00 0.00 0.00 93 1019.4
20260903043006 22 178 0.0 0.0 0.00 0.00 0.00 94 1019.5
20260903041510 22 178 0.0 0.0 0.00 0.00 0.00 93 1019.5
20260903040013 22 178 0.0 0.0 0.00 0.00 0.00 92 1019.5
20260903034520 22 178 0.0 0.0 0.00 0.00 0.00 91 1019.5
20260903033009 23 178 0.0 0.0 0.00 0.00 0.00 91 1019.5
20260903031505 23 178 0.0 0.0 0.00 0.00 0.00 91 1019.5
20260903030013 23 178 0.0 0.0 0.00 0.00 0.00 90 1019.6
20260903024516 23 178 0.0 0.0 0.00 0.00 0.00 89 1019.5
20260903023035 23 178 0.0 0.0 0.00 0.00 0.00 88 1019.5
20260903021512 24 178 0.0 0.0 0.00 0.00 0.00 87 1019.5
20260903020011 24 178 0.0 0.0 0.00 0.00 0.00 86 1019.5
20260903014516 25 178 0.0 0.0 0.00 0.00 0.00 85 1019.4
20260903013020 25 178 0.0 0.0 0.00 0.00 0.00 84 1019.4
20260903011529 25 178 0.0 0.0 0.00 0.00 0.00 82 1019.0
20260903010020 26 178 0.0 0.0 0.00 0.00 0.00 80 1019.1
20260903004509 26 178 0.0 0.0 0.00 0.00 0.00 78 1018.9
20260903003016 27 178 0.0 0.0 0.00 0.00 0.00 74 1018.8
20260903001529 28 178 0.0 0.0 0.00 0.00 0.00 71 1018.7
20260903000028 30 178 0.0 1.6 0.00 0.00 0.00 67 1018.6
20260902234545 31 120 0.0 3.2 0.00 0.00 0.00 60 1018.6
20260902233014 32 228 0.0 1.6 0.00 0.00 0.00 58 1018.6
20260902231531 33 165 0.0 1.6 0.00 0.00 0.00 56 1018.6
20260902230025 35 234 0.0 1.6 0.00 0.00 0.00 54 1018.7
20260902224535 35 150 0.0 1.6 0.00 0.00 0.00 54 1018.7
20260902223032 35 86 0.0 1.6 0.00 0.00 0.00 53 1018.7
20260902221522 35 118 0.0 1.6 0.00 0.00 0.00 52 1018.7
20260902220007 35 110 0.0 1.6 0.00 0.00 0.00 50 1018.8
20260902214504 35 91 0.0 3.2 0.00 0.00 0.00 54 1018.8
20260902213007 35 91 1.6 3.2 0.00 0.00 0.00 53 1018.8
20260902211512 34 132 0.0 3.2 0.00 0.00 0.00 55 1018.8
20260902210018 35 86 1.6 9.7 0.00 0.00 0.00 50 1018.8
20260902204503 37 24 0.0 4.8 0.00 0.00 0.00 46 1019.0
20260902203005 36 236 1.6 4.8 0.00 0.00 0.00 47 1019.1
20260902201510 35 270 3.2 6.4 0.00 0.00 0.00 50 1019.2
20260902200014 35 169 0.0 3.2 0.00 0.00 0.00 54 1019.3
20260902194523 34 92 0.0 1.6 0.00 0.00 0.00 57 1019.5
20260902193027 35 237 0.0 1.6 0.00 0.00 0.00 56 1019.7
20260902191505 36 92 0.0 4.8 0.00 0.00 0.00 50 1019.8
20260902190011 37 227 1.6 3.2 0.00 0.00 0.00 48 1020.0
20260902184519 36 270 1.6 4.8 0.00 0.00 0.00 50 1020.1
20260902183024 35 269 1.6 8.0 0.00 0.00 0.00 54 1020.2
20260902181528 35 114 1.6 6.4 0.00 0.00 0.00 54 1020.4
20260902180007 33 205 0.0 11.3 0.00 0.00 0.00 57 1020.6
20260902174512 36 16 3.2 9.7 0.00 0.00 0.00 49 1020.7
20260902173029 36 341 1.6 4.8 0.00 0.00 0.00 49 1020.9
20260902171520 35 263 3.2 4.8 0.00 0.00 0.00 52 1021.4
20260902170030 33 86 3.2 9.7 0.00 0.00 0.00 55 1021.5
20260902164506 33 265 1.6 6.4 0.00 0.00 0.00 57 1021.6
20260902163013 35 242 1.6 4.8 0.00 0.00 0.00 55 1021.9
20260902161534 34 124 1.6 4.8 0.00 0.00 0.00 58 1021.9
20260902160023 34 177 0.0 3.2 0.00 0.00 0.00 60 1022.2
20260902154533 33 77 1.6 4.8 0.00 0.00 0.00 58 1022.3
20260902153031 33 271 0.0 4.8 0.00 0.00 0.00 63 1022.2
20260902151515 32 225 0.0 3.2 0.00 0.00 0.00 62 1022.2